Regional Weather Roundup
Issued by NWS

Home | Current Version | Previous Version | Text Only | Print | Product List | Glossary Off
Versions: 1 2 3 4 5 6 7 8 9 10 11 12 13 14 15 16 17 18 19 20 21 22 23 24 25 26 27 28 29 30 31 32 33 34 35 36 37 38 39 40 41 42 43 44 45 46 47 48 49 50

752
ASUS43 KOAX 220302
RWRNE

WEATHER ROUNDUP FOR NEBRASKA
NATIONAL WEATHER SERVICE OMAHA NE
1000 PM CDT SAT APR 21 2018

NOTES: SATELLITE DATA IS BEING USED TO AUGMENT CLOUD COVER ABOVE
       12000 FEET.
       "FAIR" INDICATES FEW OR NO CLOUDS BELOW 12,000 FEET WITH NO
       SIGNIFICANT WEATHER AND/OR OBSTRUCTIONS TO VISIBILITY.


NEZ001>004-019>022-054>056-220400-
NEBRASKA PANHANDLE

CITY           SKY/WX    TMP DP  RH WIND       PRES   REMARKS
SCOTTSBLUFF    MOCLDY    40  38  93 SE13      30.19R WCI  32
ALLIANCE       CLOUDY    40  37  89 S8        30.20R WCI  34
CHADRON        CLEAR     37  34  89 S8        30.18R WCI  31
GORDON         CLOUDY    41  37  87 SE8       30.20S
KIMBALL        PTCLDY    35  34  97 S9        30.20R WCI  27
SIDNEY         CLOUDY    38  33  82 S7        30.22R WCI  33
$$

NEZ057>060-069>072-079>082-220400-
SOUTHWEST NEBRASKA

CITY           SKY/WX    TMP DP  RH WIND       PRES   REMARKS
NORTH PLATTE   CLOUDY    42  38  85 SE3       30.25R
IMPERIAL       CLOUDY    41  39  93 CALM      30.24S
LEXINGTON      CLOUDY    42  40  91 CALM      30.26R FOG
MCCOOK         CLOUDY    41  39  93 W6        30.24R
OGALLALA       CLOUDY    41  39  95 CALM      30.23S FOG
$$

NEZ005>010-023>029-035>040-094-220400-
NORTH CENTRAL NEBRASKA

CITY           SKY/WX    TMP DP  RH WIND       PRES   REMARKS
VALENTINE      CLOUDY    45  37  73 SE8       30.25R
AINSWORTH      CLOUDY    40  37  89 SE5       30.25S
BROKEN BOW     CLOUDY    42  38  85 CALM      30.25R
O`NEILL        CLOUDY    44  37  78 CALM      30.27R
ORD            CLOUDY    43  37  79 NE7       30.26R
THEDFORD       CLOUDY    42  37  80 SE8       30.25S
$$

NEZ041-046>049-061>064-073>077-083>087-220400-
SOUTH CENTRAL NEBRASKA

CITY           SKY/WX    TMP DP  RH WIND       PRES   REMARKS
GRAND ISLAND   LGT RAIN  43  38  82 E8        30.28R
AURORA         DRIZZLE   43  40  88 CALM      30.27R
HASTINGS       LGT RAIN  43  40  89 NE7       30.25R
HEBRON         RAIN      45  43  93 NW5       30.26R
HOLDREGE       CLOUDY    41  41  98 N5        30.25R
KEARNEY        CLOUDY    42  39  89 N6        30.26R
YORK             N/A     43  43 100 NW7       30.26R
$$

NEZ011>018-030>034-042>045-220400-
NORTHEAST NEBRASKA

CITY           SKY/WX    TMP DP  RH WIND       PRES   REMARKS
NORFOLK        CLOUDY    47  35  63 NE5       30.26R
ALBION         CLOUDY    44  38  79 NE6       30.27R
BLAIR          CLOUDY    51  29  41 E13       30.24R
COLUMBUS       CLOUDY    45  35  68 NW6       30.26R
FREMONT        CLOUDY    51  33  51 CALM      30.26R
TEKAMAH        MOCLDY    48  31  51 N8        30.26R
WAYNE          CLOUDY    46  34  63 CALM      30.27R
$$

NEZ050>053-065>068-078-088>093-220400-
SOUTHEAST NEBRASKA

CITY           SKY/WX    TMP DP  RH WIND       PRES   REMARKS
LINCOLN        CLOUDY    48  37  65 N8        30.25R
OMAHA EPPLEY   CLOUDY    53  28  38 E12       30.25R
BEATRICE       LGT RAIN  49  39  69 NE10      30.22R
FALLS CITY     CLOUDY    52  33  48 E7        30.19R
NEBRASKA CITY  CLOUDY    52  31  44 NE8       30.22S
PLATTSMOUTH    CLOUDY    51  31  46 NE12      30.24R
$$

NEZ044-045-051>053-067-220400-
OMAHA AREA

CITY           SKY/WX    TMP DP  RH WIND       PRES   REMARKS
OMAHA EPPLEY   CLOUDY    53  28  38 E12       30.25R
BLAIR          CLOUDY    51  29  41 E13       30.24R
FREMONT        CLOUDY    51  33  51 CALM      30.26R
MILLARD        CLOUDY    54  31  41 E6        30.24S
OFFUTT AFB     CLOUDY    51  29  44 NE12      30.24R
PLATTSMOUTH    CLOUDY    51  31  46 NE12      30.24R
WAHOO          CLOUDY    50  31  48 NE7       30.25R
$$




USA.gov is the U.S. government's official web portal to all federal, state and local government web resources and services.